Location: Wien
(48.2082°N, 16.3738°E)
Time: 10:14:47
(UTC+01:00)

Transit 2A - All Passes

Search period start: 25 February 2024 00:00
Search period end: 06 March 2024 00:00
Orbit: 600 x 953 km, 66.7° (Epoch: 24 February)

Date Brightness Start Highest point End Pass type
(mag) Time Alt. Az. Time Alt. Az. Time Alt. Az.
25 Feb - 02:40:33 10° NNW 02:44:23 24° NE 02:48:28 10° E visible
25 Feb - 04:23:05 10° NW 04:27:53 72° WSW 04:33:10 10° SSE visible
25 Feb - 06:08:55 10° W 06:10:16 11° WSW 06:11:39 10° WSW visible
25 Feb - 19:06:49 10° S 19:10:51 37° ESE 19:14:53 10° NE visible
25 Feb - 20:50:05 10° WSW 20:53:57 31° NW 20:57:54 10° NNE visible
26 Feb - 02:05:46 10° N 02:09:07 19° NE 02:12:39 10° E visible
26 Feb - 03:48:03 10° NNW 03:52:52 81° NE 03:58:11 10° SE visible
26 Feb - 05:32:22 10° WNW 05:35:29 17° WSW 05:38:46 10° SSW visible
26 Feb - 18:32:25 10° SSE 18:35:59 25° ESE 18:39:32 10° ENE visible
26 Feb - 20:14:40 10° WSW 20:18:49 43° NW 20:23:02 10° NNE visible
26 Feb - 22:01:32 10° NW 22:03:07 12° NNW 22:04:43 10° N visible
27 Feb - 01:31:03 10° N 01:33:47 15° NNE 01:36:39 10° ENE night (unlit)
27 Feb - 03:13:05 10° NNW 03:17:49 58° NE 03:23:00 10° SE visible
27 Feb - 04:56:42 10° WNW 05:00:39 24° WSW 05:04:53 10° SSW visible
27 Feb - 17:58:25 10° SSE 18:01:10 17° ESE 18:03:55 10° ENE visible
27 Feb - 19:39:25 10° SW 19:43:43 63° NW 19:48:05 10° NNE visible
27 Feb - 21:25:19 10° WNW 21:27:44 14° NNW 21:30:11 10° N visible
28 Feb - 00:56:27 10° N 00:58:25 12° NNE 01:00:26 10° NE night (unlit)
28 Feb - 02:38:10 10° NNW 02:42:43 42° NE 02:47:40 10° ESE visible
28 Feb - 04:21:20 10° NW 04:25:46 35° WSW 04:30:35 10° S visible
28 Feb - 17:25:32 10° ESE 17:26:24 11° ESE 17:27:16 10° E daylight
28 Feb - 19:04:20 10° SSW 19:08:41 87° ESE 19:13:05 10° NE visible
28 Feb - 20:49:22 10° WNW 20:52:23 18° NW 20:55:30 10° N visible
29 Feb - 00:22:18 10° NNE 00:22:59 10° NNE 00:23:41 10° NNE night (unlit)
29 Feb - 02:03:18 10° NNW 02:07:33 31° NE 02:12:10 10° ESE night (unlit)
29 Feb - 03:46:07 10° NW 03:50:49 50° WSW 03:56:01 10° SSE visible
29 Feb - 18:29:27 10° SSW 18:33:42 57° ESE 18:38:00 10° NE visible
29 Feb - 20:13:37 10° W 20:17:07 23° NW 20:20:42 10° NNE visible
01 Mar - 01:28:27 10° NNW 01:32:20 24° NE 01:36:30 10° E night (unlit)
01 Mar - 03:11:00 10° NW 03:15:51 72° WSW 03:21:13 10° SSE night (unlit)
01 Mar - 04:56:42 10° W 04:58:15 11° WSW 04:59:50 10° WSW night (unlit)
01 Mar - 17:54:46 10° S 17:58:47 37° ESE 18:02:49 10° NE daylight
01 Mar - 19:38:01 10° WSW 19:41:54 31° NW 19:45:53 10° NNE visible
02 Mar - 00:53:40 10° NNW 00:57:04 19° NE 01:00:40 10° E night (unlit)
02 Mar - 02:35:58 10° NNW 02:40:50 81° NE 02:46:13 10° SE night (unlit)
02 Mar - 04:20:15 10° WNW 04:23:28 17° WSW 04:26:51 10° SSW night (unlit)
02 Mar - 17:20:22 10° SSE 17:23:54 25° ESE 17:27:28 10° ENE daylight
02 Mar - 19:02:35 10° WSW 19:06:44 43° NW 19:10:59 10° NNE visible
02 Mar - 20:49:24 10° NW 20:51:02 12° NNW 20:52:44 10° N visible
03 Mar - 00:18:55 10° N 00:21:44 15° NNE 00:24:40 10° ENE night (unlit)
03 Mar - 02:01:00 10° NNW 02:05:46 58° NE 02:11:02 10° SE night (unlit)
03 Mar - 03:44:36 10° WNW 03:48:37 25° WSW 03:52:56 10° SSW night (unlit)
03 Mar - 16:46:22 10° SSE 16:49:06 16° ESE 16:51:50 10° ENE daylight
03 Mar - 18:27:20 10° SW 18:31:38 63° NW 18:36:02 10° NNE visible
03 Mar - 20:13:12 10° WNW 20:15:39 15° NNW 20:18:10 10° N visible
03 Mar - 23:44:18 10° N 23:46:21 13° NNE 23:48:28 10° NE visible
04 Mar - 01:26:04 10° NNW 01:30:39 42° NE 01:35:41 10° ESE night (unlit)
04 Mar - 03:09:14 10° NW 03:13:43 35° WSW 03:18:37 10° S night (unlit)
04 Mar - 16:13:32 10° ESE 16:14:20 10° ESE 16:15:07 10° E daylight
04 Mar - 17:52:15 10° SSW 17:56:35 87° SE 18:01:01 10° NE daylight
04 Mar - 19:37:15 10° WNW 19:40:19 18° NNW 19:43:27 10° N visible
04 Mar - 23:10:01 10° N 23:10:55 10° NNE 23:11:50 10° NNE visible
05 Mar - 00:51:11 10° NNW 00:55:30 32° NE 01:00:10 10° ESE night (unlit)
05 Mar - 02:34:00 10° NW 02:38:47 51° WSW 02:44:02 10° SSE night (unlit)
05 Mar - 17:17:22 10° SSW 17:21:36 57° ESE 17:25:56 10° NE daylight
05 Mar - 19:01:30 10° W 19:05:01 24° NW 19:08:39 10° NNE visible
